Bloomington, IN

3:48 PM EST on December 05, 2019 (GMT -0500)
Monroe County

Weather History for KBMG - September, 2019

Change the Weather History Date:

Monday, September 30, 2019

  Actual Average Record
Temperature  
Mean Temperature 78 °F 60 °F  
Max Temperature 93 °F 73 °F 82 °F (2007)
Min Temperature 64 °F 47 °F 36 °F (2003)
Degree Days  
Heating Degree Days 0 7  
Month to date heating degree days 78  
Since 1 July heating degree days 85  
Cooling Degree Days 14 1  
Month to date cooling degree days 96  
Year to date cooling degree days 913  
Growing Degree Days 28 (Base 50)    
Moisture  
Dew Point 64 °F    
Average Humidity 79    
Maximum Humidity 97    
Minimum Humidity 38    
Precipitation  
Precipitation 0.00 in 0.14 in 0.06 in (2016)
Month to date precipitation 3.35  
Year to date precipitation 36.54  
Sea Level Pressure  
Sea Level Pressure 30.10 in    
Wind  
Wind Speed 1 mph ()    
Max Wind Speed 13 mph    
Max Gust Speed 18 mph    
Visibility 6.6 miles    
Events Fog    
T = Trace of Precipitation, MM = Missing Value Source: Averaged Metar Reports

Daily Weather History Graph

Daily Weather History Graph

Search for Another Location

Airport or City:

Astronomy

Sep. 30, 2019 Rise Set
Actual Time 7:41 AM EDT 7:31 PM EDT
Civil Twilight 7:14 AM EDT 7:57 PM EDT
Nautical Twilight 6:43 AM EDT 8:28 PM EDT
Astronomical Twilight 6:12 AM EDT 8:59 PM EDT
Moon 9:44 AM EDT (9/30) 9:07 PM EDT (9/30)
Length of Visible Light 12h 42m
Length of Day
11h 49m
Waxing Crescent, 5% of the Moon is Illuminated
Sep 30
Waxing Crescent
Oct 5
First Quarter
Oct 13
Full
Oct 21
Last Quarter
Oct 27
New

Hourly Weather History & Observations

Time (EDT) Temp. Heat Index Dew Point Humidity Pressure Visibility Wind Dir Wind Speed Gust Speed Precip Events Conditions
12:53 AM 68.0 °F - 64.9 °F 90% 30.10 in 7.0 mi Calm Calm - N/A   Clear
1:53 AM 66.9 °F - 64.0 °F 90% 30.10 in 4.0 mi Calm Calm - N/A   Clear
2:53 AM 66.0 °F - 64.0 °F 93% 30.11 in 4.0 mi Calm Calm - N/A   Clear
3:03 AM 64.9 °F - 63.0 °F 93% 30.13 in 2.5 mi Calm Calm - N/A   Clear
3:13 AM 66.0 °F - 64.0 °F 93% 30.13 in 5.0 mi Calm Calm - N/A   Clear
3:22 AM 66.0 °F - 64.0 °F 93% 30.13 in 2.0 mi Calm Calm - N/A   Clear
3:40 AM 64.9 °F - 63.0 °F 93% 30.12 in 6.0 mi Calm Calm - N/A   Clear
3:53 AM 66.0 °F - 63.0 °F 90% 30.10 in 7.0 mi Calm Calm - N/A   Clear
4:50 AM 64.4 °F - 62.6 °F 94% 30.13 in 4.0 mi Calm Calm - N/A   Partly Cloudy
4:53 AM 64.9 °F - 62.1 °F 90% 30.10 in 4.0 mi Calm Calm - N/A   Partly Cloudy
5:12 AM 64.9 °F - 63.0 °F 93% 30.13 in 1.8 mi Calm Calm - N/A   Partly Cloudy
5:32 AM 64.9 °F - 63.0 °F 93% 30.13 in 0.5 mi Calm Calm - N/A Fog Fog
5:40 AM 64.9 °F - 63.0 °F 93% 30.13 in 2.0 mi SSE 3.5 mph - N/A   Clear
5:48 AM 64.4 °F - 62.6 °F 94% 30.13 in 8.0 mi Calm Calm - N/A   Clear
5:53 AM 66.0 °F - 63.0 °F 90% 30.11 in 10.0 mi Calm Calm - N/A   Clear
6:53 AM 64.9 °F - 62.1 °F 90% 30.12 in 5.0 mi Calm Calm - N/A   Clear
7:21 AM 64.9 °F - 63.0 °F 93% 30.14 in 1.5 mi Calm Calm - N/A   Clear
7:28 AM 64.9 °F - 63.0 °F 93% 30.14 in 3.0 mi Calm Calm - N/A   Clear
7:53 AM 64.9 °F - 63.0 °F 93% 30.13 in 3.0 mi Calm Calm - N/A   Clear
8:00 AM 64.9 °F - 63.0 °F 93% 30.15 in 0.8 mi Calm Calm - N/A   Clear
8:05 AM 64.9 °F - 64.0 °F 97% 30.15 in 2.0 mi Calm Calm - N/A   Clear
8:12 AM 66.0 °F - 63.0 °F 90% 30.15 in 7.0 mi Calm Calm - N/A   Clear
8:53 AM 70.0 °F - 66.9 °F 90% 30.14 in 9.0 mi Calm Calm - N/A   Clear
9:53 AM 78.1 °F - 68.0 °F 71% 30.14 in 10.0 mi Calm Calm - N/A   Clear
10:53 AM 84.0 °F 86.3 °F 66.0 °F 55% 30.14 in 10.0 mi SSW 6.9 mph - N/A   Clear
11:53 AM 88.0 °F 90.7 °F 66.9 °F 49% 30.14 in 10.0 mi WSW 10.4 mph - N/A   Clear
12:53 PM 90.0 °F 92.8 °F 66.9 °F 46% 30.12 in 10.0 mi SW 6.9 mph 18.4 mph N/A   Clear
1:53 PM 91.0 °F 93.0 °F 64.9 °F 42% 30.10 in 10.0 mi SSW 9.2 mph - N/A   Clear
2:53 PM 91.9 °F 94.1 °F 64.9 °F 41% 30.08 in 10.0 mi SW 12.7 mph - N/A   Partly Cloudy
3:53 PM 93.0 °F 94.6 °F 64.0 °F 38% 30.05 in 10.0 mi WSW 10.4 mph - N/A   Partly Cloudy
4:53 PM 91.9 °F 92.9 °F 63.0 °F 38% 30.04 in 10.0 mi WSW 11.5 mph 17.3 mph N/A   Clear
5:53 PM 90.0 °F 90.6 °F 63.0 °F 40% 30.03 in 10.0 mi SW 9.2 mph - N/A   Clear
6:53 PM 87.1 °F 88.3 °F 64.0 °F 46% 30.03 in 10.0 mi SSW 4.6 mph - N/A   Clear
7:53 PM 78.1 °F - 66.0 °F 66% 30.02 in 10.0 mi Calm Calm - N/A   Clear
8:53 PM 73.0 °F - 66.0 °F 79% 30.03 in 10.0 mi Calm Calm - N/A   Clear
9:53 PM 72.0 °F - 66.9 °F 84% 30.03 in 10.0 mi Calm Calm - N/A   Clear
10:53 PM 71.1 °F - 66.0 °F 84% 30.03 in 10.0 mi Calm Calm - N/A   Clear
11:53 PM 69.1 °F - 64.9 °F 87% 30.04 in 10.0 mi Calm Calm - N/A   Clear